THY3AX LGAV-LTFM

Flight info

Callsign THY3AX
Flight time 0h 58m
Altitude 33000
Route KRO UN604 INBET
Aircraft A359/H-SDE2E3GHIJ1J3J4J5LM1ORWXYZ/LB1D1

Departure

Time 2026-05-06 19:49
Airport Athens Eleftherios Venizelos International Airport (LGAV)

Arrival

Time 2026-05-06 20:47
Airport İstanbul Airport (LTFM)
Time Latitude Longitude Altitude Speed Heading
2026-05-06 18:49 37.93284 23.94542 307 ft 0 kts 308°
2026-05-06 19:35 37.93282 23.94545 310 ft 3 kts 308°
2026-05-06 19:35 37.93272 23.94562 308 ft 3 kts 308°
2026-05-06 19:35 37.93255 23.94589 307 ft 3 kts 315°
2026-05-06 19:36 37.93237 23.94604 308 ft 4 kts
2026-05-06 19:36 37.93218 23.94595 307 ft 3 kts 37°
2026-05-06 19:36 37.93199 23.94576 307 ft 3 kts 37°
2026-05-06 19:36 37.93197 23.94574 307 ft 0 kts 37°
2026-05-06 19:41 37.93228 23.94604 310 ft 10 kts 37°
2026-05-06 19:41 37.93289 23.94663 310 ft 13 kts 37°
2026-05-06 19:41 37.93367 23.94737 310 ft 15 kts 37°
2026-05-06 19:41 37.93457 23.94823 308 ft 17 kts 38°
2026-05-06 19:42 37.93559 23.94920 310 ft 20 kts 37°
2026-05-06 19:42 37.93653 23.95010 310 ft 16 kts 37°
2026-05-06 19:42 37.93749 23.95102 308 ft 19 kts 37°
2026-05-06 19:42 37.93834 23.95185 310 ft 13 kts 42°
2026-05-06 19:43 37.93880 23.95298 308 ft 15 kts 69°
2026-05-06 19:43 37.93881 23.95378 305 ft 10 kts 122°
2026-05-06 19:43 37.93859 23.95469 306 ft 13 kts 75°
2026-05-06 19:43 37.93930 23.95547 306 ft 15 kts 37°
2026-05-06 19:44 37.94020 23.95633 303 ft 17 kts 37°
2026-05-06 19:44 37.94123 23.95729 306 ft 19 kts 36°
2026-05-06 19:44 37.94236 23.95836 307 ft 21 kts 36°
2026-05-06 19:44 37.94356 23.95951 305 ft 21 kts 38°
2026-05-06 19:45 37.94476 23.96066 307 ft 22 kts 37°
2026-05-06 19:45 37.94590 23.96172 309 ft 20 kts 37°
2026-05-06 19:45 37.94703 23.96279 309 ft 20 kts 37°
2026-05-06 19:45 37.94814 23.96384 309 ft 19 kts 37°
2026-05-06 19:46 37.94925 23.96489 312 ft 21 kts 37°
2026-05-06 19:46 37.95044 23.96603 313 ft 22 kts 37°
2026-05-06 19:46 37.95168 23.96721 313 ft 22 kts 37°
2026-05-06 19:46 37.95249 23.96797 312 ft 14 kts 37°
2026-05-06 19:47 37.95295 23.96848 311 ft 6 kts 60°
2026-05-06 19:47 37.95289 23.96897 314 ft 6 kts 112°
2026-05-06 19:47 37.95269 23.96946 315 ft 6 kts 122°
2026-05-06 19:47 37.95247 23.96983 314 ft 5 kts 127°
2026-05-06 19:48 37.95225 23.97011 314 ft 4 kts 146°
2026-05-06 19:48 37.95192 23.97011 316 ft 6 kts 194°
2026-05-06 19:48 37.95144 23.96977 316 ft 10 kts 215°
2026-05-06 19:48 37.95075 23.96913 314 ft 22 kts 217°
2026-05-06 19:49 37.94729 23.96582 307 ft 101 kts 217°
2026-05-06 19:49 37.93986 23.95876 292 ft 165 kts 217°
2026-05-06 19:49 37.93014 23.95003 952 ft 169 kts 211°
2026-05-06 19:49 37.91966 23.94297 1694 ft 178 kts 206°
2026-05-06 19:50 37.90755 23.93558 1990 ft 210 kts 206°
2026-05-06 19:50 37.89372 23.92697 2515 ft 229 kts 207°
2026-05-06 19:50 37.87933 23.91750 3294 ft 240 kts 209°
2026-05-06 19:50 37.86451 23.90742 4149 ft 244 kts 209°
2026-05-06 19:51 37.84954 23.89706 5016 ft 247 kts 210°
2026-05-06 19:51 37.83433 23.88644 5849 ft 253 kts 210°
2026-05-06 19:51 37.81875 23.87548 6696 ft 259 kts 210°
2026-05-06 19:51 37.80287 23.86433 7587 ft 263 kts 210°
2026-05-06 19:52 37.78661 23.85336 8458 ft 268 kts 205°
2026-05-06 19:52 37.76829 23.84809 9325 ft 275 kts 180°
2026-05-06 19:52 37.74987 23.85390 10107 ft 285 kts 152°
2026-05-06 19:52 37.73478 23.87097 10540 ft 305 kts 123°
2026-05-06 19:53 37.72408 23.89515 10946 ft 327 kts 115°
2026-05-06 19:53 37.71371 23.92153 11506 ft 342 kts 116°
2026-05-06 19:53 37.70462 23.94966 12273 ft 349 kts 104°
2026-05-06 19:53 37.70158 23.98012 13067 ft 353 kts 86°
2026-05-06 19:54 37.70720 24.01014 13805 ft 354 kts 62°
2026-05-06 19:54 37.72048 24.03622 14638 ft 355 kts 49°
2026-05-06 19:54 37.73711 24.05932 15435 ft 357 kts 40°
2026-05-06 19:54 37.75642 24.07907 16200 ft 358 kts 31°
2026-05-06 19:55 37.77790 24.09493 16943 ft 359 kts 23°
2026-05-06 19:55 37.79974 24.11062 17685 ft 366 kts 34°
2026-05-06 19:55 37.81806 24.13354 18423 ft 376 kts 49°
2026-05-06 19:55 37.83281 24.16114 19108 ft 383 kts 54°
2026-05-06 19:56 37.84695 24.18995 19788 ft 388 kts 54°
2026-05-06 19:56 37.86115 24.21911 20492 ft 392 kts 54°
2026-05-06 19:56 37.87549 24.24872 21203 ft 396 kts 54°
2026-05-06 19:56 37.88997 24.27864 21882 ft 401 kts 54°
2026-05-06 19:57 37.90461 24.30892 22525 ft 405 kts 53°
2026-05-06 19:57 37.91939 24.33950 23152 ft 410 kts 53°
2026-05-06 19:57 37.93434 24.37048 23779 ft 414 kts 53°
2026-05-06 19:57 37.94939 24.40169 24389 ft 418 kts 53°
2026-05-06 19:58 37.96462 24.43329 24962 ft 422 kts 53°
2026-05-06 19:58 37.97980 24.46483 25525 ft 426 kts 53°
2026-05-06 19:58 37.99601 24.49637 26083 ft 427 kts 48°
2026-05-06 19:58 38.01413 24.52631 26635 ft 430 kts 46°
2026-05-06 19:59 38.03316 24.55568 27176 ft 433 kts 45°
2026-05-06 19:59 38.05271 24.58505 27667 ft 438 kts 44°
2026-05-06 19:59 38.07247 24.61455 28254 ft 439 kts 44°
2026-05-06 19:59 38.09233 24.64425 28754 ft 442 kts 44°
2026-05-06 20:00 38.11229 24.67428 29190 ft 447 kts 45°
2026-05-06 20:00 38.13231 24.70456 29659 ft 450 kts 45°
2026-05-06 20:00 38.15245 24.73519 30120 ft 453 kts 45°
2026-05-06 20:00 38.17270 24.76606 30553 ft 456 kts 45°
2026-05-06 20:01 38.19307 24.79719 30973 ft 459 kts 45°
2026-05-06 20:01 38.21347 24.82850 31368 ft 462 kts 45°
2026-05-06 20:01 38.23400 24.86002 31802 ft 464 kts 45°
2026-05-06 20:01 38.25463 24.89168 32185 ft 466 kts 45°
2026-05-06 20:02 38.27541 24.92357 32544 ft 469 kts 45°
2026-05-06 20:02 38.29632 24.95566 32927 ft 472 kts 45°
2026-05-06 20:02 38.31727 24.98790 33069 ft 469 kts 45°
2026-05-06 20:02 38.33738 25.01899 33081 ft 453 kts 45°
2026-05-06 20:03 38.35700 25.04943 33081 ft 437 kts 44°
2026-05-06 20:03 38.37611 25.07903 33081 ft 430 kts 44°
2026-05-06 20:03 38.41425 25.13774 33083 ft 430 kts 44°
2026-05-06 20:04 38.45243 25.19648 33073 ft 430 kts 44°
2026-05-06 20:04 38.49037 25.25526 33073 ft 429 kts 44°
2026-05-06 20:05 38.52833 25.31422 33082 ft 429 kts 44°
2026-05-06 20:05 38.56615 25.37310 33082 ft 428 kts 44°
2026-05-06 20:06 38.60396 25.43195 33081 ft 428 kts 44°
2026-05-06 20:06 38.64170 25.49077 33082 ft 428 kts 44°
2026-05-06 20:07 38.67943 25.54972 33082 ft 428 kts 44°
2026-05-06 20:07 38.71706 25.60870 33081 ft 428 kts 44°
2026-05-06 20:08 38.75447 25.66744 33084 ft 428 kts 44°
2026-05-06 20:08 38.79202 25.72649 33081 ft 428 kts 44°
2026-05-06 20:09 38.82961 25.78565 33082 ft 427 kts 44°
2026-05-06 20:09 38.86710 25.84482 33091 ft 427 kts 44°
2026-05-06 20:10 38.90453 25.90394 33091 ft 426 kts 44°
2026-05-06 20:10 38.94189 25.96308 33091 ft 427 kts 44°
2026-05-06 20:11 38.97921 26.02235 33092 ft 426 kts 44°
2026-05-06 20:11 39.01646 26.08143 33089 ft 423 kts 44°
2026-05-06 20:12 39.05353 26.14035 33090 ft 424 kts 44°
2026-05-06 20:12 39.09050 26.19946 33103 ft 424 kts 44°
2026-05-06 20:13 39.12755 26.25867 33098 ft 424 kts 44°
2026-05-06 20:13 39.16451 26.31785 33098 ft 423 kts 44°
2026-05-06 20:14 39.20118 26.37667 33098 ft 424 kts 44°
2026-05-06 20:14 39.24192 26.42997 33104 ft 411 kts 30°
2026-05-06 20:15 39.28966 26.46876 33101 ft 404 kts 24°
2026-05-06 20:15 39.32786 26.49736 33096 ft 406 kts 26°
2026-05-06 20:16 39.37375 26.53667 33098 ft 408 kts 27°
2026-05-06 20:16 39.42055 26.57822 33103 ft 408 kts 28°
2026-05-06 20:17 39.46715 26.62011 33102 ft 408 kts 28°
2026-05-06 20:17 39.51367 26.66210 33099 ft 408 kts 28°
2026-05-06 20:18 39.56022 26.70403 33098 ft 408 kts 28°
2026-05-06 20:18 39.58359 26.72506 32974 ft 414 kts 28°
2026-05-06 20:18 39.60758 26.74657 32910 ft 426 kts 28°
2026-05-06 20:19 39.63236 26.76879 32868 ft 440 kts 28°
2026-05-06 20:19 39.65771 26.79163 32707 ft 443 kts 29°
2026-05-06 20:19 39.68292 26.81453 32486 ft 442 kts 29°
2026-05-06 20:19 39.70807 26.83742 32229 ft 441 kts 29°
2026-05-06 20:20 39.73315 26.86029 31979 ft 440 kts 29°
2026-05-06 20:20 39.75811 26.88302 31726 ft 437 kts 29°
2026-05-06 20:20 39.78297 26.90561 31471 ft 435 kts 29°
2026-05-06 20:20 39.80780 26.92817 31222 ft 434 kts 29°
2026-05-06 20:21 39.83248 26.95060 30972 ft 432 kts 29°
2026-05-06 20:21 39.85705 26.97296 30722 ft 430 kts 29°
2026-05-06 20:21 39.88148 26.99524 30473 ft 429 kts 29°
2026-05-06 20:21 39.90589 27.01749 30214 ft 427 kts 29°
2026-05-06 20:22 39.93015 27.03965 29971 ft 425 kts 29°
2026-05-06 20:22 39.95426 27.06170 29718 ft 422 kts 29°
2026-05-06 20:22 39.97811 27.08355 29348 ft 416 kts 29°
2026-05-06 20:22 40.00172 27.10516 28847 ft 413 kts 29°
2026-05-06 20:23 40.02510 27.12659 28351 ft 409 kts 30°
2026-05-06 20:23 40.04825 27.14783 27844 ft 406 kts 30°
2026-05-06 20:23 40.07129 27.16900 27344 ft 403 kts 30°
2026-05-06 20:23 40.09413 27.19000 26848 ft 400 kts 30°
2026-05-06 20:24 40.11681 27.21084 26350 ft 397 kts 30°
2026-05-06 20:24 40.13917 27.23141 26035 ft 388 kts 30°
2026-05-06 20:24 40.16008 27.25346 25970 ft 392 kts 37°
2026-05-06 20:24 40.17998 27.27875 25758 ft 404 kts 40°
2026-05-06 20:25 40.19940 27.30482 25512 ft 406 kts 41°
2026-05-06 20:25 40.21889 27.33135 25258 ft 405 kts 41°
2026-05-06 20:25 40.23838 27.35800 24981 ft 402 kts 41°
2026-05-06 20:25 40.25756 27.38432 24539 ft 398 kts 41°
2026-05-06 20:26 40.27662 27.41049 24021 ft 395 kts 41°
2026-05-06 20:26 40.29549 27.43641 23479 ft 394 kts 41°
2026-05-06 20:26 40.31438 27.46240 22936 ft 391 kts 41°
2026-05-06 20:26 40.33311 27.48818 22402 ft 389 kts 41°
2026-05-06 20:27 40.35172 27.51379 21839 ft 387 kts 42°
2026-05-06 20:27 40.37015 27.53923 21307 ft 384 kts 42°
2026-05-06 20:27 40.38845 27.56450 20762 ft 381 kts 42°
2026-05-06 20:27 40.40663 27.58962 20222 ft 378 kts 42°
2026-05-06 20:28 40.42470 27.61459 19678 ft 376 kts 42°
2026-05-06 20:28 40.44264 27.63942 19137 ft 373 kts 42°
2026-05-06 20:28 40.46045 27.66408 18592 ft 371 kts 42°
2026-05-06 20:28 40.47815 27.68856 18054 ft 369 kts 42°
2026-05-06 20:29 40.49575 27.71298 17522 ft 367 kts 42°
2026-05-06 20:29 40.51320 27.73722 16965 ft 364 kts 43°
2026-05-06 20:29 40.53055 27.76132 16442 ft 361 kts 43°
2026-05-06 20:29 40.54748 27.78486 15905 ft 358 kts 43°
2026-05-06 20:30 40.56456 27.80862 15343 ft 357 kts 43°
2026-05-06 20:30 40.59845 27.85588 14213 ft 352 kts 43°
2026-05-06 20:30 40.61516 27.87919 13688 ft 348 kts 43°
2026-05-06 20:31 40.63169 27.90230 13164 ft 345 kts 43°
2026-05-06 20:31 40.64805 27.92515 12646 ft 341 kts 43°
2026-05-06 20:31 40.66419 27.94770 12130 ft 337 kts 44°
2026-05-06 20:31 40.68019 27.97009 11609 ft 334 kts 44°
2026-05-06 20:32 40.69603 27.99227 11117 ft 330 kts 44°
2026-05-06 20:32 40.70638 28.00678 10773 ft 326 kts 44°
2026-05-06 20:32 40.72171 28.02824 10526 ft 315 kts 44°
2026-05-06 20:32 40.73636 28.04884 10389 ft 301 kts 44°
2026-05-06 20:33 40.75034 28.06849 10253 ft 287 kts 44°
2026-05-06 20:33 40.76379 28.08736 10070 ft 278 kts 44°
2026-05-06 20:33 40.77697 28.10588 9746 ft 278 kts 44°
2026-05-06 20:33 40.79040 28.12471 9390 ft 283 kts 44°
2026-05-06 20:34 40.80387 28.14363 9016 ft 283 kts 44°
2026-05-06 20:34 40.81733 28.16259 8648 ft 282 kts 44°
2026-05-06 20:34 40.83070 28.18145 8284 ft 281 kts 45°
2026-05-06 20:34 40.84400 28.20023 7927 ft 280 kts 45°
2026-05-06 20:35 40.85726 28.21896 7554 ft 278 kts 45°
2026-05-06 20:35 40.87045 28.23757 7193 ft 277 kts 45°
2026-05-06 20:35 40.88353 28.25610 6829 ft 275 kts 45°
2026-05-06 20:35 40.89658 28.27454 6450 ft 274 kts 45°
2026-05-06 20:36 40.90950 28.29286 6185 ft 270 kts 45°
2026-05-06 20:36 40.92185 28.31038 6036 ft 258 kts 45°
2026-05-06 20:36 40.93393 28.32747 5902 ft 246 kts 45°
2026-05-06 20:36 40.94532 28.34358 5719 ft 239 kts 45°
2026-05-06 20:37 40.95662 28.35955 5450 ft 237 kts 45°
2026-05-06 20:37 40.96765 28.37572 5151 ft 237 kts 50°
2026-05-06 20:37 40.97483 28.39514 4898 ft 237 kts 78°
2026-05-06 20:37 40.97603 28.41696 4948 ft 238 kts 89°
2026-05-06 20:38 40.97593 28.43893 4987 ft 239 kts 89°
2026-05-06 20:38 40.97578 28.46095 5020 ft 239 kts 89°
2026-05-06 20:38 40.97562 28.48296 5035 ft 240 kts 90°
2026-05-06 20:38 40.97378 28.50486 4932 ft 240 kts 99°
2026-05-06 20:39 40.97045 28.52641 4814 ft 239 kts 101°
2026-05-06 20:39 40.96694 28.54786 4680 ft 237 kts 101°
2026-05-06 20:39 40.96356 28.56879 4564 ft 228 kts 102°
2026-05-06 20:39 40.96037 28.58916 4423 ft 226 kts 98°
2026-05-06 20:40 40.95941 28.60993 4306 ft 226 kts 89°
2026-05-06 20:40 40.95962 28.63060 4179 ft 224 kts 88°
2026-05-06 20:40 40.95995 28.65127 4050 ft 225 kts 89°
2026-05-06 20:40 40.96198 28.67155 3914 ft 223 kts 71°
2026-05-06 20:41 40.97026 28.68848 3794 ft 220 kts 41°
2026-05-06 20:41 40.98303 28.69959 3674 ft 220 kts 27°
2026-05-06 20:41 40.99685 28.70706 3539 ft 215 kts 17°
2026-05-06 20:41 41.01125 28.71128 3423 ft 216 kts
2026-05-06 20:42 41.02623 28.71255 3298 ft 216 kts
2026-05-06 20:42 41.04128 28.71269 3172 ft 215 kts
2026-05-06 20:42 41.05622 28.71235 3083 ft 212 kts 359°
2026-05-06 20:42 41.07052 28.71194 3003 ft 199 kts 359°
2026-05-06 20:43 41.08393 28.71154 2996 ft 188 kts 360°
2026-05-06 20:43 41.09702 28.71121 2987 ft 189 kts 359°
2026-05-06 20:43 41.11004 28.71089 2984 ft 181 kts
2026-05-06 20:43 41.12213 28.71063 2985 ft 170 kts
2026-05-06 20:44 41.13389 28.71039 2900 ft 168 kts 359°
2026-05-06 20:44 41.14553 28.71012 2685 ft 167 kts
2026-05-06 20:44 41.15713 28.70989 2457 ft 167 kts
2026-05-06 20:44 41.16871 28.70959 2239 ft 167 kts
2026-05-06 20:45 41.18023 28.70935 2005 ft 161 kts
2026-05-06 20:45 41.19102 28.70904 1789 ft 150 kts
2026-05-06 20:45 41.20116 28.70884 1584 ft 141 kts
2026-05-06 20:45 41.21067 28.70871 1383 ft 135 kts
2026-05-06 20:46 41.22005 28.70847 1219 ft 135 kts
2026-05-06 20:46 41.22947 28.70828 1076 ft 136 kts
2026-05-06 20:46 41.23895 28.70799 887 ft 134 kts
2026-05-06 20:46 41.24826 28.70763 717 ft 133 kts
2026-05-06 20:47 41.25748 28.70750 540 ft 135 kts
2026-05-06 20:47 41.26672 28.70734 380 ft 133 kts
2026-05-06 20:47 41.27556 28.70716 337 ft 110 kts 359°
2026-05-06 20:47 41.28004 28.70702 335 ft 36 kts 359°
2026-05-06 20:48 41.28209 28.70717 336 ft 26 kts 13°
2026-05-06 20:48 41.28357 28.70794 340 ft 14 kts 27°
2026-05-06 20:48 41.28447 28.70861 340 ft 16 kts 34°
2026-05-06 20:48 41.28500 28.70981 339 ft 16 kts 77°
2026-05-06 20:49 41.28504 28.71113 340 ft 10 kts 97°
2026-05-06 20:49 41.28450 28.71170 340 ft 12 kts 167°
2026-05-06 20:49 41.28357 28.71174 338 ft 15 kts 180°
2026-05-06 20:49 41.28243 28.71174 339 ft 18 kts 178°
2026-05-06 20:50 41.28108 28.71178 340 ft 21 kts 179°
2026-05-06 20:50 41.27960 28.71183 340 ft 22 kts 179°
2026-05-06 20:50 41.27795 28.71186 340 ft 25 kts 179°
2026-05-06 20:50 41.27645 28.71190 339 ft 21 kts 179°
2026-05-06 20:51 41.27494 28.71195 338 ft 22 kts 178°
2026-05-06 20:51 41.27357 28.71198 339 ft 19 kts 179°
2026-05-06 20:51 41.27220 28.71201 340 ft 20 kts 179°
2026-05-06 20:51 41.27082 28.71204 338 ft 19 kts 179°
2026-05-06 20:52 41.26961 28.71207 338 ft 17 kts 179°
2026-05-06 20:52 41.26848 28.71210 338 ft 12 kts 179°
2026-05-06 20:52 41.26786 28.71259 340 ft 12 kts 110°
2026-05-06 20:52 41.26784 28.71378 336 ft 14 kts 89°
2026-05-06 20:53 41.26785 28.71525 340 ft 17 kts 89°
2026-05-06 20:53 41.26787 28.71697 339 ft 20 kts 89°
2026-05-06 20:53 41.26789 28.71890 338 ft 21 kts 88°
2026-05-06 20:53 41.26794 28.72077 336 ft 18 kts 87°
2026-05-06 20:54 41.26795 28.72230 339 ft 10 kts 99°
2026-05-06 20:54 41.26752 28.72281 337 ft 9 kts 160°
2026-05-06 20:54 41.26713 28.72325 337 ft 6 kts 112°
2026-05-06 20:54 41.26710 28.72398 337 ft 10 kts 90°
2026-05-06 20:55 41.26711 28.72500 337 ft 13 kts 89°
2026-05-06 20:55 41.26712 28.72632 340 ft 16 kts 89°
2026-05-06 20:55 41.26714 28.72788 338 ft 18 kts 89°
2026-05-06 20:55 41.26718 28.72938 340 ft 10 kts 81°
2026-05-06 20:56 41.26774 28.72989 336 ft 11 kts
2026-05-06 20:56 41.26855 28.73018 338 ft 13 kts 46°
2026-05-06 20:56 41.26867 28.73140 339 ft 15 kts 91°
2026-05-06 20:56 41.26868 28.73291 336 ft 18 kts 89°
2026-05-06 20:57 41.26871 28.73457 336 ft 17 kts 88°
2026-05-06 20:57 41.26873 28.73584 337 ft 13 kts 90°
2026-05-06 20:57 41.26874 28.73719 340 ft 16 kts 89°
2026-05-06 20:57 41.26874 28.73837 339 ft 8 kts 102°
2026-05-06 20:58 41.26826 28.73871 337 ft 9 kts 171°
2026-05-06 20:58 41.26748 28.73875 336 ft 13 kts 178°
2026-05-06 20:58 41.26677 28.73873 340 ft 3 kts 194°
2026-05-06 20:58 41.26657 28.73844 340 ft 5 kts 244°
2026-05-06 20:59 41.26650 28.73803 340 ft 4 kts 261°
2026-05-06 20:59 41.26649 28.73774 337 ft 2 kts 267°
2026-05-06 20:59 41.26649 28.73767 336 ft 0 kts 267°